[Iaude] MPEC Y01: 2023 XR14 [a=0.89,e=0.35,i=3.0,H=28.1]

mpec at marsden.cfa.harvard.edu mpec at marsden.cfa.harvard.edu
Fri Dec 15 21:03:39 EST 2023


M.P.E.C. 2023-Y01                             Issued 2023 December 16, 02:01 UT

     The Minor Planet Electronic Circulars contain information on unusual
         minor planets, routine data on comets and natural satellites,
         and occasional editorial announcements.  They are published
    on behalf of Division F of the International Astronomical Union by the
          Minor Planet Center, Smithsonian Astrophysical Observatory,
                          Cambridge, MA 02138, U.S.A.
			  
             Prepared using the Tamkin Foundation Computer Network

                              MPC at CFA.HARVARD.EDU
            URL https://www.minorplanetcenter.net/    ISSN 1523-6714

                                   2023 XR14                                    


Observations:
     K23X14R*1C2023 12 15.22910804 36 52.654+20 59 29.40         19.11GVEY001G96
     K23X14R 1C2023 12 15.23422904 36 45.684+20 58 18.73         19.45GVEY001G96
     K23X14R 1C2023 12 15.23935804 36 38.819+20 57 08.86         19.20GVEY001G96
     K23X14R 1C2023 12 15.24447404 36 31.928+20 55 58.76         19.53GVEY001G96
     K23X14R mC2023 12 15.31591204 34 59.056+20 39 50.47         19.82GVEY001I52
     K23X14R mC2023 12 15.31608204 34 58.836+20 39 47.95         20.28GVEY001I52
     K23X14R mC2023 12 15.31625104 34 58.652+20 39 46.33         19.44GVEY001I52
     K23X14R mC2023 12 15.31643204 34 58.422+20 39 43.81         19.57GVEY001I52
     K23X14R 0B2023 12 15.80270 04 28 42.00 +19 18 53.3          19.2 VZEY001M49
     K23X14R 0B2023 12 15.80716 04 28 38.08 +19 18 14.7          19.2 VZEY001M49
     K23X14R 0B2023 12 15.81160 04 28 34.29 +19 17 36.0          19.6 VZEY001M49
     K23X14R KB2023 12 15.84191 04 28 05.69 +19 03 33.6          19.1 RZEY001106
     K23X14R KB2023 12 15.84899 04 27 59.89 +19 02 34.1          19.6 RZEY001106
     K23X14R KB2023 12 15.85413 04 27 55.66 +19 01 49.8          19.9 RZEY001106
     K23X14R KB2023 12 15.85946 04 27 51.13 +19 01 04.2          18.9 RZEY001106
     K23X14R KC2023 12 15.89843004 27 21.78 +18 55 38.4          20.0 GVEY001203
     K23X14R KC2023 12 15.90120 04 27 14.80 +18 54 57.5          19.8 GVEY001K88
     K23X14R KC2023 12 15.90145704 27 19.22 +18 55 10.3          20.2 GVEY001587
     K23X14R KC2023 12 15.90217304 27 18.67 +18 55 04.0                VEY001587
     K23X14R KC2023 12 15.90253104 27 18.39 +18 55 00.8                VEY001587
     K23X14R KC2023 12 15.90565 04 27 11.30 +18 54 20.1          19.9 GVEY001K88
     K23X14R KC2023 12 15.92986704 26 56.73 +18 51 15.5          20.0 GVEY001203
     K23X14R KC2023 12 15.95592 04 26 36.52 +18 47 35.8                VEY001204
     K23X14R KC2023 12 15.95846104 26 32.41 +18 47 17.3          19.8 GVEY001L01
     K23X14R KC2023 12 15.95994204 26 31.26 +18 47 04.0          19.9 GVEY001L01
     K23X14R KC2023 12 15.96142304 26 30.13 +18 46 52.1          19.8 GVEY001L01
     K23X14R KC2023 12 15.96290404 26 29.00 +18 46 40.2          20.0 GVEY001L01
     K23X14R KC2023 12 15.96430 04 26 30.08 +18 46 26.5                VEY001204
     K23X14R KC2023 12 15.96438404 26 27.87 +18 46 27.1          20.2 GVEY001L01
     K23X14R KC2023 12 15.97268 04 26 23.70 +18 45 16.5          20.2 GVEY001204

Observer details:
106 Crni Vrh.  Observer H. Mikuz.  0.60-m f/3.3 reflector + CMO.
203 GiaGa Observatory.  Observers S. Foglia, G. Galli.  Measurer G. Galli.
    0.36-m f/5.76 Schmidt-Cassegrain + CCD.
204 Schiaparelli Observatory.  Observers L. Buzzi, G. Galli.  0.84-m f/3.5
    reflector + CCD.
587 Sormano.  Observers F. Manca, A. Testa.  Measurer F. Manca.  0.5-m f/6.8
    reflector + CCD.
G96 Mt. Lemmon Survey.  Observer J. K. Hogan.  Measurers E. C. Beshore, D.
    Fay, J. B. Fazekas, D. C. Fuls, A. R. Gibbs, A. D. Grauer, H. Groeller, J.
    K. Hogan, R. A. Kowalski, S. M. Larson, G. J. Leonard, D. Rankin, R. L.
    Seaman, F. C. Shelly, K. W. Wierzchos.  1.5-m reflector + 10K CCD.
I52 Steward Observatory, Mt. Lemmon Station.  Observer K. W. Wierzchos.
    Measurers E. C. Beshore, D. Fay, J. B. Fazekas, D. C. Fuls, A. R. Gibbs,
    A. D. Grauer, H. Groeller, J. K. Hogan, R. A. Kowalski, S. M. Larson, G.
    J. Leonard, D. Rankin, R. L. Seaman, F. C. Shelly, K. W. Wierzchos.  1.0-m
    prime focus + CCD.
K88 GINOP-KHK, Piszkesteto.  Observer K. Sarneczky.  0.60-m Schmidt + CCD.
L01 Visnjan Observatory, Tican.  Observer K. Korlevic.  1.0-m f/2.9 reflector
    + CCD.
M49 IAS Remote Observatory, Hakos.  Observers D. Husar, M. Junius.  Measurer
    D. Husar.  0.25-m f/4.5 reflector + CMO.

Orbital elements:
2023 XR14                                                Earth MOID = 0.0017 AU
Epoch 2023 Sept. 13.0 TT = JDT 2460200.5                Veres                   
M 342.33505              (2000.0)            P               Q                  
n   1.16887199     Peri.   52.32592     +0.70168101     +0.71056600             
a   0.8925340      Node   262.32421     -0.66920031     +0.63204878             
e   0.3450884      Incl.    3.02752     -0.24457046     +0.30920915             
P   0.84           H   28.15          G   0.15           U   6                  
Residuals in seconds of arc
231215 G96  0.1-  0.4+    231215 M49  0.3-  0.6+    231215 K88  0.3+  0.4+
231215 G96  0.6-  0.1-    231215 106  1.5+  0.2-    231215 203  0.1-  0.0
231215 G96  0.3+  0.2+    231215 106  1.6+  0.3+    231215 204  0.1+  0.5-
231215 G96  0.1+  0.1+    231215 106  1.4+  0.4-    231215 L01  0.1-  0.0
231215 I52  0.1-  0.4-    231215 106  0.9-  0.9-    231215 L01  0.3-  0.9-
231215 I52  0.2-  0.6-    231215 203  0.1-  0.5+    231215 L01  0.2-  0.4-
231215 I52  0.2+  0.0     231215 K88  0.3-  0.0     231215 L01  0.2-  0.1+
231215 I52  0.1+  0.1-    231215 587  0.2-  0.3+    231215 204  0.0   0.2-
231215 M49  0.9-  1.3+    231215 587  0.2+  0.0     231215 L01  0.2-  0.7-
231215 M49  1.4-  1.1+    231215 587  0.3+  0.2-    231215 204  0.1+  0.7-

Ephemeris:
2023 XR14                a,e,i = 0.89, 0.35, 3                   q = 0.5845
Date    TT    R. A. (2000) Decl.     Delta      r    Elong.  Phase     V
2023 11 16    15 58 56.0 -12 58 15   0.1727  0.8199    10.4   167.5
...
2023 12 01    15 53 41.3 -11 03 41   0.07207 0.9161    13.1   165.9
...
2023 12 09    15 38 36.9 -07 20 26   0.02408 0.9633    25.0   154.4    29.3
...
2023 12 15    04 41 27.3 +22 01 10   0.01207 0.9962   169.4    10.4    19.2
2023 12 16    04 26 14.5 +18 45 32   0.01787 1.0015   164.2    15.6    20.3
2023 12 17    04 18 48.2 +17 04 44   0.02375 1.0066   160.9    18.6    21.0
...
2023 12 23    04 06 38.6 +14 05 55   0.05957 1.0362   151.1    27.3    23.3
...
2023 12 31    04 05 48.1 +13 29 00   0.1086  1.0718   142.8    33.7    24.9
...
2024 01 15    04 14 10.0 +13 54 43   0.2057  1.1264   129.8    42.1    26.6

                      (Last issue was M.P.E.C. 2023-X310)                       

M. P. C. Staff               (C) Copyright 2023 MPC           M.P.E.C. 2023-Y01





More information about the Iaude mailing list